This demonstration page uses our WeatherBlox Daily Observations layout. Learn more.

Left ArrowRight Arrow

Hourly Observations for May 29, 2015

Temp ( °F °C ) Dew Point ( °F °C ) Humidity (%) Winds ( mph kmh ) Pressure ( in mb ) Visibility ( mi km ) Precip ( " mm )
12:53 am 00:53 Clear 63 17.2 56 13.3 78 78 NE 12 19 29.85 1011 10 16 0.00 0.00
1:53 am 01:53 Clear 62 16.7 56 13.3 80 80 E 8 13 29.84 1011 10 16 0.00 0.00
2:53 am 02:53 Clear 61 16.1 56 13.3 84 84 E 6 9 29.83 1010 10 16 0.00 0.00
3:53 am 03:53 Clear 57 13.9 54 12.2 90 90 Calm 29.83 1010 10 16 0.00 0.00
4:53 am 04:53 Clear 55 12.8 53 11.7 93 93 Calm 29.82 1010 10 16 0.00 0.00
5:53 am 05:53 Clear 53 11.7 51 10.6 93 93 NNW 7 11 29.83 1010 10 16 0.00 0.00
6:53 am 06:53 Sunny 55 12.8 53 11.7 93 93 NNE 8 13 29.85 1011 10 16 0.00 0.00
7:53 am 07:53 Sunny 60 15.6 55 12.8 84 84 ENE 5 7 29.86 1011 10 16 0.00 0.00
8:53 am 08:53 Sunny 67 19.4 56 13.3 68 68 E 7 11 29.88 1012 10 16 0.00 0.00
9:53 am 09:53 Sunny 71 21.7 58 14.4 63 63 ENE 9 15 29.88 1012 10 16 0.00 0.00
10:53 am 10:53 Sunny 75 23.9 59 15 58 58 NE 5 7 29.88 1012 10 16 0.00 0.00
11:53 am 11:53 Sunny 77 25 59 15 54 54 Calm 29.88 1012 10 16 0.00 0.00
12:53 pm 12:53 Sunny 80 26.7 58 14.4 47 47 VRB 3 6 29.86 1011 10 16 0.00 0.00
1:53 pm 13:53 Sunny 85 29.4 57 13.9 39 39 VRB 5 7 29.85 1011 10 16 0.00 0.00
2:53 pm 14:53 Sunny 88 31.1 56 13.3 34 34 undefined N/A 29.83 1010 10 16 0.00 0.00
3:53 pm 15:53 Sunny 90 32.2 55 12.8 31 31 VRB 5 7 29.81 1010 10 16 0.00 0.00
4:53 pm 16:53 Sunny 90 32.2 54 12.2 29 29 Calm 29.80 1009 10 16 0.00 0.00
5:53 pm 17:53 Sunny 90 32.2 53 11.7 28 28 SSE 7 11 29.79 1009 10 16 0.00 0.00
6:53 pm 18:53 Sunny 89 31.7 60 15.6 38 38 E 9 15 29.78 1009 10 16 0.00 0.00
7:53 pm 19:53 Sunny 86 30 61 16.1 43 43 ESE 13 20 29.79 1009 10 16 0.00 0.00
8:53 pm 20:53 Clear 82 27.8 59 15 46 46 ESE 8 13 29.79 1009 10 16 0.00 0.00
9:53 pm 21:53 Clear 76 24.4 60 15.6 58 58 E 5 7 29.80 1009 10 16 0.00 0.00
10:53 pm 22:53 Clear 75 23.9 61 16.1 62 62 ENE 8 13 29.86 1011 10 16 0.00 0.00
11:53 pm 23:53 Clear 74 23.3 65 18.3 74 74 E 10 17 29.88 1012 10 16 0.00 0.00

Powered by AerisWeather